• Join FlightAware (Why Join?)
  • Login
  • US Flag 
01:54AM EDT


 

Airport Tracker/Info


-or-


 

Live Flight TrackerFlight Track Log ✈ SWA1046 ✈ 30-Jun-2013 ✈ KBWI - KBDL

Flight Track Log - Related Links

Times and Time Zones

All times are in EDT time to prevent confusion due to time zone crossing. See the SWA1046 flight status page for this flight to view local times or setup timezone preferences in your user account.

Time Position Orientation Groundspeed Altitude Reporting Facility
EDT Latitude Longitude Course Direction KTS MPH feet Rate Location/Type
10:49AM 39.1667 -76.7333 122° Southeast 172 198 2,700  Level Potomac TRACON
10:51AM 39.1008 -76.5972 122° Southeast 168 193 7,200 1,860 Climbing Washington Center
10:52AM 39.0972 -76.5222 94° East 209 241 8,600 2,160 Climbing Washington Center
10:53AM 39.0983 -76.3914 89° East 280 322 11,700 2,700 Climbing Washington Center
10:54AM 39.1158 -76.2711 79° East 304 350 14,000 2,460 Climbing Washington Center
10:55AM 39.1392 -76.1536 76° East 334 384 16,600 2,580 Climbing Washington Center
10:57AM 39.2589 -75.9106 57° Northeast 382 440 22,000 2,100 Climbing Washington Center
10:58AM 39.3322 -75.7928 51° Northeast 406 467 23,000 480 Climbing Washington Center
10:59AM 39.4114 -75.6775 48° Northeast 417 480 23,000  Level Washington Center
11:00AM 39.4928 -75.5647 47° Northeast 417 480 23,000 420 Level Washington Center
11:02AM 39.6467 -75.3275 50° Northeast 422 486 24,300 660 Climbing Washington Center
11:03AM 39.7278 -75.2056 49° Northeast 434 499 25,000 360 Climbing New York Center
11:04AM 39.8078 -75.0728 52° Northeast 454 522 25,000  Level New York Center
11:05AM 39.8894 -74.9481 49° Northeast 459 528 25,000  Level New York Center
11:06AM 39.9686 -74.8336 48° Northeast 459 528 25,000  Level New York Center
11:07AM 40.0542 -74.7083 48° Northeast 469 540 25,000 -60 Level New York Center
11:08AM 40.1294 -74.5689 55° Northeast 464 534 24,900 -840 Descending New York Center
11:09AM 40.2028 -74.4314 55° Northeast 464 534 23,400 -960 Descending New York Center
11:10AM 40.2736 -74.2967 55° Northeast 459 528 23,000 -360 Descending New York Center
11:11AM 40.3461 -74.1642 54° Northeast 454 522 22,700 -660 Descending New York Center
11:12AM 40.4122 -74.0364 56° Northeast 443 510 21,700 -1,080 Descending New York Center
11:14AM 40.5631 -73.7458 56° Northeast 419 482 19,300 -840 Descending Boston Center
11:15AM 40.6292 -73.6242 54° Northeast 419 482 19,000 -180 Descending Boston Center
11:16AM 40.6928 -73.4994 56° Northeast 419 482 19,000  Level Boston Center
11:17AM 40.7586 -73.3717 56° Northeast 419 482 19,000 -60 Level Boston Center
11:18AM 40.8344 -73.2603 48° Northeast 419 482 18,900 -600 Descending Boston Center
11:19AM 40.9269 -73.1489 42° Northeast 408 470 17,800 -1,140 Descending Boston Center
11:20AM 41.0275 -73.0289 42° Northeast 403 464 16,500 -1,200 Descending Boston Center
11:21AM 41.0758 -72.9742 40° Northeast 398 458 15,900 -1,740 Descending Boston Center
11:22AM 41.1469 -72.8922 41° Northeast 392 451 14,000 -2,100 Descending Boston Center
11:22AM 41.1889 -72.8400 43° Northeast 387 445 13,000 -2,100 Descending Boston Center
11:23AM 41.2306 -72.7933 40° Northeast 382 440 11,900 -2,040 Descending Boston Center
11:23AM 41.2661 -72.7467 45° Northeast 380 437 11,000 -900 Descending Boston Center
11:24AM 41.3100 -72.7192 25° Northeast 361 415 11,000 -480 Level Boston Center
11:25AM 41.4061 -72.7086 North 353 406 10,300 -540 Descending Boston Center
11:26AM 41.4978 -72.6675 19° North 334 384 10,000 -900 Descending Boston Center
11:27AM 41.5792 -72.6289 20° North 308 354 8,500 -1,320 Descending Boston Center
11:28AM 41.6564 -72.5983 16° North 290 334 7,400 -1,320 Descending Boston Center
11:29AM 41.7333 -72.5653 18° North 289 333 5,900 -1,200 Descending Boston Center
11:30AM 41.8125 -72.5347 16° North 282 325 5,000 -960 Descending Boston Center
11:31AM 41.8814 -72.5097 15° North 259 298 4,000 -1,080 Descending Boston Center
11:32AM 41.9503 -72.4819 17° North 256 295 2,900 -780 Descending Boston Center
11:33AM 42.0044 -72.5128 337° Northwest 218 251 2,500 -420 Descending Boston Center
11:34AM 42.0253 -72.5714 296° West 174 200 2,100 -600 Descending Boston Center
11:35AM 41.9939 -72.6161 227° Southwest 159 183 1,400 -720 Descending Boston Center
11:36AM 41.9647 -72.6522 223° Southwest 146 168 700 -720 Descending Boston Center